User: anonymous   Login
Location: Sungai Liu
(2.3667°N, 113.8667°E)
Time: 04:46:09
(UTC+00:00)
Language:

Ariane H10 - Orbit

View from above orbital plane
View from above orbital plane
View from above satellite
View from above satellite

Ground track
Ground track

The orbit data is extracted from the following two-line orbital elements,

1 19773U 89006B   22228.37972286 -.00000056  00000-0  48824-3 0  9991
2 19773   8.0157 242.1927 7159551 126.6212 322.0483  2.28451439278579
Epoch (UTC): 16 August 2022 09:06:48
Eccentricity: 0.7159551
inclination: 8.0157°
perigee height: 539 km
apogee height: 35409 km
right ascension of ascending node: 242.1927°
argument of perigee: 126.6212°
revolutions per day: 2.28451439
mean anomaly at epoch: 322.0483°
orbit number at epoch: 27857

The dashed part of the orbit path shows where the satellite is in the earth's shadow,  

DLR